Weather History for Cavalier, ND

Change the Weather History Date:

Wednesday, May 14, 2014

  Actual Average (KGAF) Record (KGAF)
Temperature  
Mean Temperature 36 °F -  
Max Temperature 41 °F 70 °F 92 °F (1977)
Min Temperature 32 °F 42 °F 27 °F (1973)
Degree Days  
Heating Degree Days 28    
Moisture  
Dew Point 30 °F    
Average Humidity 73    
Maximum Humidity 100    
Minimum Humidity 61    
Precipitation  
Precipitation 0.00 in - - ()
Sea Level Pressure  
Sea Level Pressure 30.28 in    
Wind  
Wind Speed 10 mph (NNW)    
Max Wind Speed 17 mph    
Max Gust Speed 25 mph    
Visibility 10 miles    
Events      
Averages and records for this station are not official NWS values.
T = Trace of Precipitation, MM = Missing Value Source: NWS Daily Summary

Daily Weather History Graph

Daily Weather History Graph

Search for Another Location

Airport:

Trip Planner

Search our weather history database for the weather conditions in past years. The results will help you decide how hot, cold, wet, or windy it might be!

Date:

Astronomy

May. 14, 2014 Rise Set
Actual Time 5:50 AM CDT 9:04 PM CDT
Civil Twilight 5:12 AM CDT 9:42 PM CDT
Nautical Twilight 4:23 AM CDT 10:31 PM CDT
Astronomical Twilight 3:20 AM CDT 11:35 PM CDT
Moon 9:08 PM CDT (5/14) 5:54 AM CDT (5/14)
Length of Visible Light 16h 29m
Length of Day
15h 13m
Full, 100% of the Moon is Illuminated
May 14
Full
May 14
Full
May 21
Last Quarter
May 28
New
Jun 5
First Quarter

Hourly Weather History & Observations

Time (CDT) Temp. Windchill Dew Point Humidity Pressure Visibility Wind Dir Wind Speed Gust Speed Precip Events Conditions
12:15 AM 39.2 °F 31.2 °F 32.0 °F 75% 30.16 in 10.0 mi NW 13.8 mph - N/A   Partly Cloudy
12:35 AM 37.4 °F 29.8 °F 32.0 °F 81% 30.17 in 10.0 mi NW 11.5 mph - N/A   Clear
12:55 AM 37.4 °F 30.3 °F 32.0 °F 81% 30.17 in 10.0 mi NW 10.4 mph - N/A   Mostly Cloudy
1:15 AM 37.4 °F 31.4 °F 32.0 °F 81% 30.18 in 10.0 mi NNW 8.1 mph - N/A   Mostly Cloudy
1:35 AM 37.4 °F 30.8 °F 32.0 °F 81% 30.18 in 10.0 mi NNW 9.2 mph - N/A   Overcast
1:55 AM 37.4 °F 31.4 °F 32.0 °F 81% 30.19 in 10.0 mi NW 8.1 mph - N/A   Overcast
2:15 AM 37.4 °F 32.1 °F 32.0 °F 81% 30.19 in 10.0 mi NW 6.9 mph - N/A   Overcast
2:35 AM 35.6 °F 28.6 °F 32.0 °F 87% 30.19 in 10.0 mi WNW 9.2 mph - N/A   Scattered Clouds
2:55 AM 35.6 °F 28.6 °F 32.0 °F 87% 30.19 in 10.0 mi WNW 9.2 mph - N/A   Clear
3:15 AM 35.6 °F 28.0 °F 30.2 °F 81% 30.19 in 10.0 mi NW 10.4 mph - N/A   Clear
3:35 AM 35.6 °F 28.6 °F 30.2 °F 81% 30.20 in 10.0 mi NW 9.2 mph - N/A   Mostly Cloudy
3:55 AM 35.6 °F 29.2 °F 30.2 °F 81% 30.20 in 10.0 mi NNW 8.1 mph - N/A   Overcast
4:15 AM 35.6 °F 29.9 °F 32.0 °F 87% 30.21 in 10.0 mi NNW 6.9 mph - N/A   Overcast
4:35 AM 35.6 °F 28.0 °F 32.0 °F 87% 30.21 in 10.0 mi NW 10.4 mph - N/A   Overcast
4:55 AM 35.6 °F 28.6 °F 32.0 °F 87% 30.22 in 10.0 mi NW 9.2 mph - N/A   Overcast
5:15 AM 32.0 °F 24.8 °F 30.2 °F 93% 30.22 in 10.0 mi NW 8.1 mph - N/A   Scattered Clouds
5:35 AM 33.8 °F 28.6 °F 32.0 °F 93% 30.23 in 10.0 mi NW 5.8 mph - N/A   Mostly Cloudy
5:55 AM 33.8 °F 28.6 °F 32.0 °F 93% 30.23 in 10.0 mi NNW 5.8 mph - N/A   Mostly Cloudy
6:15 AM 32.0 °F 28.7 °F 32.0 °F 100% 30.24 in 10.0 mi NNW 3.5 mph - N/A   Mostly Cloudy
6:35 AM 33.8 °F 28.6 °F 32.0 °F 93% 30.25 in 10.0 mi North 5.8 mph - N/A   Mostly Cloudy
6:55 AM 33.8 °F 27.7 °F 32.0 °F 93% 30.25 in 10.0 mi NW 6.9 mph - N/A   Mostly Cloudy
7:15 AM 35.6 °F 29.2 °F 32.0 °F 87% 30.26 in 10.0 mi NW 8.1 mph - N/A   Scattered Clouds
7:35 AM 35.6 °F 26.6 °F 30.2 °F 81% 30.26 in 10.0 mi NNW 13.8 mph - N/A   Mostly Cloudy
7:55 AM 35.6 °F 26.2 °F 30.2 °F 81% 30.27 in 10.0 mi NNW 15.0 mph 19.6 mph N/A   Overcast
8:15 AM 35.6 °F 26.2 °F 30.2 °F 81% 30.27 in 10.0 mi NNW 15.0 mph 23.0 mph N/A   Mostly Cloudy
8:35 AM 35.6 °F 26.6 °F 30.2 °F 81% 30.28 in 10.0 mi NNW 13.8 mph - N/A   Overcast
8:55 AM 37.4 °F 27.8 °F 28.4 °F 70% 30.28 in 10.0 mi NNW 17.3 mph - N/A   Mostly Cloudy
9:35 AM 37.4 °F 27.8 °F 28.4 °F 70% 30.28 in 10.0 mi NW 17.3 mph - N/A   Mostly Cloudy
9:55 AM 37.4 °F 29.3 °F 28.4 °F 70% 30.28 in 10.0 mi NNW 12.7 mph 21.9 mph N/A   Mostly Cloudy
10:15 AM 37.4 °F 28.9 °F 28.4 °F 70% 30.29 in 10.0 mi NNW 13.8 mph 20.7 mph N/A   Overcast
10:35 AM 39.2 °F 30.5 °F 28.4 °F 65% 30.29 in 10.0 mi North 16.1 mph 23.0 mph N/A   Mostly Cloudy
10:55 AM 39.2 °F 30.2 °F 28.4 °F 65% 30.30 in 10.0 mi North 17.3 mph 25.3 mph N/A   Mostly Cloudy
11:15 AM 39.2 °F 30.2 °F 28.4 °F 65% 30.30 in 10.0 mi NNW 17.3 mph 21.9 mph N/A   Mostly Cloudy
11:55 AM 39.2 °F 30.8 °F 26.6 °F 61% 30.31 in 10.0 mi NNW 15.0 mph 21.9 mph N/A   Overcast
12:35 PM 39.2 °F 30.5 °F 28.4 °F 65% 30.31 in 10.0 mi North 16.1 mph 21.9 mph N/A   Overcast
12:55 PM 39.2 °F 30.5 °F 28.4 °F 65% 30.32 in 10.0 mi NNW 16.1 mph - N/A   Mostly Cloudy
1:15 PM 39.2 °F 30.5 °F 28.4 °F 65% 30.32 in 10.0 mi NW 16.1 mph 20.7 mph N/A   Overcast
1:35 PM 41.0 °F 33.1 °F 28.4 °F 61% 30.32 in 10.0 mi NNW 15.0 mph 20.7 mph N/A   Overcast
1:55 PM 39.2 °F 30.8 °F 28.4 °F 65% 30.32 in 10.0 mi NNW 15.0 mph 21.9 mph N/A   Mostly Cloudy
2:15 PM 41.0 °F 32.8 °F 28.4 °F 61% 30.32 in 10.0 mi NNW 16.1 mph 20.7 mph N/A   Overcast
2:35 PM 41.0 °F 34.3 °F 28.4 °F 61% 30.32 in 10.0 mi NNW 11.5 mph - N/A   Overcast
2:55 PM 41.0 °F 34.7 °F 28.4 °F 61% 30.32 in 10.0 mi North 10.4 mph - N/A   Overcast
3:15 PM 41.0 °F 34.3 °F 28.4 °F 61% 30.32 in 10.0 mi North 11.5 mph - N/A   Overcast
3:55 PM 41.0 °F 34.3 °F 28.4 °F 61% 30.32 in 10.0 mi NNW 11.5 mph 16.1 mph N/A   Overcast
4:15 PM 41.0 °F 34.3 °F 28.4 °F 61% 30.32 in 10.0 mi NNW 11.5 mph - N/A   Overcast
4:35 PM 41.0 °F 35.2 °F 28.4 °F 61% 30.32 in 10.0 mi NNW 9.2 mph 18.4 mph N/A   Overcast
4:55 PM 41.0 °F 34.3 °F 28.4 °F 61% 30.33 in 10.0 mi North 11.5 mph - N/A   Overcast
5:15 PM 41.0 °F 33.9 °F 28.4 °F 61% 30.33 in 10.0 mi NNW 12.7 mph - N/A   Overcast
5:35 PM 41.0 °F 34.7 °F 28.4 °F 61% 30.33 in 10.0 mi NNW 10.4 mph - N/A   Overcast
5:55 PM 41.0 °F 35.8 °F 28.4 °F 61% 30.33 in 10.0 mi North 8.1 mph - N/A   Overcast
6:15 PM 41.0 °F 34.7 °F 28.4 °F 61% 30.33 in 10.0 mi NNW 10.4 mph - N/A   Overcast
6:35 PM 41.0 °F 35.2 °F 28.4 °F 61% 30.32 in 10.0 mi NNW 9.2 mph - N/A   Overcast
6:55 PM 41.0 °F 35.8 °F 28.4 °F 61% 30.32 in 10.0 mi North 8.1 mph - N/A   Overcast
7:15 PM 41.0 °F 35.8 °F 28.4 °F 61% 30.32 in 10.0 mi North 8.1 mph - N/A   Overcast
7:35 PM 41.0 °F 35.8 °F 28.4 °F 61% 30.32 in 10.0 mi NNW 8.1 mph - N/A   Overcast
7:55 PM 41.0 °F 36.4 °F 28.4 °F 61% 30.32 in 10.0 mi North 6.9 mph - N/A   Overcast
8:15 PM 41.0 °F 36.4 °F 28.4 °F 61% 30.31 in 10.0 mi NNW 6.9 mph - N/A   Overcast
8:35 PM 41.0 °F 36.4 °F 28.4 °F 61% 30.31 in 10.0 mi NW 6.9 mph - N/A   Overcast
8:55 PM 41.0 °F 37.1 °F 28.4 °F 61% 30.31 in 10.0 mi NW 5.8 mph - N/A   Overcast
9:15 PM 39.2 °F 35.0 °F 28.4 °F 65% 30.31 in 10.0 mi NE 5.8 mph - N/A   Mostly Cloudy
9:35 PM 39.2 °F 35.9 °F 28.4 °F 65% 30.32 in 10.0 mi NE 4.6 mph - N/A   Partly Cloudy
9:55 PM 37.4 °F - 30.2 °F 75% 30.32 in 10.0 mi Calm Calm - N/A   Clear
10:15 PM 37.4 °F 34.9 °F 30.2 °F 75% 30.33 in 10.0 mi NE 3.5 mph - N/A   Clear
10:35 PM 37.4 °F 34.9 °F 28.4 °F 70% 30.33 in 10.0 mi ENE 3.5 mph - N/A   Clear
10:55 PM 37.4 °F - 28.4 °F 70% 30.34 in 10.0 mi Calm Calm - N/A   Clear
11:15 PM 32.0 °F - 28.4 °F 87% 30.34 in 10.0 mi Calm Calm - N/A   Clear
11:35 PM 32.0 °F - 28.4 °F 87% 30.34 in 10.0 mi Calm Calm - N/A   Clear
11:55 PM 32.0 °F - 28.4 °F 87% 30.34 in 10.0 mi Calm Calm - N/A   Clear